AirNav   Everest Fuels
 
 1570 users online  

0MS2 Morgan Field Airport
Seminary, Mississippi, USA

GOING TO SEMINARY?


FAA INFORMATION EFFECTIVE 10 SEPTEMBER 2020

Location

FAA Identifier: 0MS2
Lat/Long: 31-32-30.6010N 089-23-30.2290W
31-32.510017N 089-23.503817W
31.5418336,-89.3917303
(estimated)
Elevation: 300 ft. / 91 m (estimated)
Variation: 02E (1985)
From city: 5 miles W of SEMINARY, MS
Time zone: UTC -5 (UTC -6 during Standard Time)
Zip code: 39479

Airport Operations

Airport use: Private use. Permission required prior to landing
Activation date: 12/1985
Control tower: no
ARTCC: HOUSTON CENTER
FSS: GREENWOOD FLIGHT SERVICE STATION
Attendance: CONTINUOUS
Wind indicator: yes
Segmented circle: no
Lights: FOR LIRL RWY 18/36 CALL 601-752-6854.

Airport Communications

WX AWOS-3PT at PIB (5 nm SE): 128.325 (601-584-6701)
WX AWOS-3PT at LUL (14 nm NE): 119.275 (601-425-9792)
WX ASOS at HBG (18 nm SE): 135.425 (601-544-2185)

Nearby radio navigation aids

VOR radial/distance  VOR name  Freq  Var
LBYr334/7.9EATON VORTAC110.6005E

Airport Services

Runway Information

Runway 18/36

Dimensions: 2300 x 75 ft. / 701 x 23 m
Surface: turf
RUNWAY 18  RUNWAY 36
Traffic pattern: leftleft

Airport Ownership and Management from official FAA records

Ownership: Privately-owned
Owner: CHARLES E. MORGAN
1336 MIS RD
SEMINARY, MS 39479
Phone 601-752-6854

Additional Remarks

FOR CD CTC HOUSTON ARTCC AT 281-230-5622.

Instrument Procedures

There are no published instrument procedures at 0MS2.

Some nearby airports with instrument procedures:

KPIB - Hattiesburg-Laurel Regional Airport (5 nm SE)
KLUL - Hesler-Noble Field Airport (14 nm NE)
KHBG - Hattiesburg Bobby L Chain Municipal Airport (18 nm SE)
0R0 - Columbia-Marion County Airport (26 nm SW)
M43 - Prentiss-Jefferson Davis County Airport (27 nm W)
 
Loc | Ops | Rwys | IFR | FBO | Links
Com | Nav | Svcs | Stats | Notes

Continental Services
AirBoss

 
Area around 0MS2 (Morgan Field Airport)
 
Road maps at: MapQuest Bing Google
 
Aerial photo
No photo
 
Sectional chart

 
Airport distance calculator
Flying to Morgan Field Airport? Find the distance to fly.

From to 0MS2

Sunrise and sunset
Times for 30-Sep-2020
 Local
(UTC-5)
 Zulu
(UTC)
Morning civil twilight06:2811:28
Sunrise06:5211:52
Sunset18:4223:42
Evening civil twilight19:0600:06

Current date and time
Zulu (UTC)  30-Sep-2020 18:04:54
Local (UTC-5)  30-Sep-2020 13:04:54
 
METAR
KLUL 
5nm SE 
301755Z AUTO 26004KT 10SM CLR 25/09 A3013 RMK A02 T02470088 10251 20091
KPIB 
6nm SE 
301756Z AUTO VRB03KT 10SM CLR 24/10 A3013 RMK AO2 SLP203 T02440100 10244 20089 58004
KHBG 
18nm SE 
301753Z AUTO 00000KT 10SM CLR 24/07 A3013 RMK AO2 SLP200 T02440072 10250 20089 58005
TAF
KPIB 
6nm SE 
301120Z 3012/0112 00000KT P6SM SKC FM301600 27006KT P6SM SKC
KHBG 
18nm SE 
301120Z 3012/0112 VRB03KT P6SM SKC FM301600 27006KT P6SM SKC
NOTAMs
Click for the latest NOTAMs
NOTAMs are issued by the DoD/FAA and will open in a separate window not controlled by AirNav.

 

 
 

Would you like to see your business listed on this page?

 If your business provides an interesting product or service to pilots, flight crews, aircraft, or users of the Morgan Field Airport, you should consider listing it here.  To start the listing process, click on the button below
 
Add a business
 

Other Pages about Morgan Field Airport

Update a link
 
Copyright © AirNav, LLC. All rights reserved. Privacy Policy  Contact